Погода в Олешне

Украина / Черниговская область     51°57′14″N   31°09′04″E
темп.,
°C
ветер,
м/с
пор.,
м/с
влажн.,
%
обл.,
%
осадки,
мм/ч
давл.,
гПа
погр.,
м
17 сентября, пт
пт1700:00+10вюв3759100 0.0 1018189
03:00+11юв3957100 0.0 1017240
06:00+11вюв3755100 0.0 1015257
09:00+8в4890100 2.6 1015208
12:00+9юв51293100 2.5 1013335
15:00+12вюв51181100 2.6 1012375
18:00+11в41179100 0.0 1010265
21:00+10в5108192 0.0 1010305
18 сентября, сб
сб1800:00+11в61279100 0.0 1009398
03:00+11в61389100 0.0 1008461
06:00+11вюв61393100 0.7 1007443
09:00+11вюв61397100 3.3 1006481
12:00+11вюв61498100 1.1 1005477
15:00+14юв61297100 2.4 1004922
18:00+12ююз4893100 0.3 1006591
21:00+12ю2794100 0.3 1007309
19 сентября, вс
вс1900:00+11ю2494100 0.1 1008179
03:00+9юз129564 0.1 100924
06:00+8зюз119530 0.0 100810
09:00+11юв1185100 0.0 1009188
12:00+15юв2269100 0.0 1008712
15:00+16юв3468100 0.4 1007940
18:00+12ююв3694100 1.5 1007275
21:00+10з2498100 4.6 1007259
20 сентября, пн
пн2000:00+8зюз3797100 7.8 1006349
03:00+8юз359699 8.3 1006404
06:00+8юз2596100 0.1 1006388
09:00+8юз2494100 0.2 1006319
12:00+8зюз2495100 0.5 1006339
15:00+8ссз3696100 2.1 1007448
18:00+7сз4796100 1.4 1008578
21:00+6зсз4796100 1.9 1010875
21 сентября, вт
вт2100:00+5зсз5996100 0.2 1011624
03:00+4зсз51097100 0.8 1011533
06:00+4зсз5997100 0.4 1012546
09:00+4зсз4897100 0.6 1013663
12:00+4зсз4897100 0.2 1014697
15:00+4зсз4897100 0.6 1014740
18:00+4зсз4897100 0.6 1015739
21:00+4зсз4897100 1.1 1015822